[[{"header":{"parameterUnit":"m.s-1","parameterCategory":1,"la1":30.2991,"la2":30.254,"lo1":-89.0895,"lo2":-89.0444,"dy":0.0017,"dx":0.0017,"nx":28,"ny":28,"refTime":"2025-07-17T09:00:00:Z","depth":0,"parameterNumber":2,"parameterNumberName":"U-component_of_WINDS"},"data":[0,0,0,0,0,0,0,0,0,0,0,0,0,0,0,0,0,0,0,0,0,0,0,0,0,0,0,0,0,0,0,0,0,0,0,0,0,0,0,0,0,0,0,0,0,0,0,0,0,0,0,0,0,0,0,0,0,0,0.1936,0.1936,0,0.1912,0.1912,0.1912,0.1753,0.1749,0.1745,0.1741,0.1724,0.1727,0.173,0,0,0,0,0,0,0,0,0,0,0,0,0,0.1853,0.1855,0.1936,0.1936,0.1936,0.1912,0.1912,0.1912,0.1754,0.1749,0.1744,0.174,0.1723,0.1727,0.1731,0,0,0,0,0,0,0,0,0,0,0,0,0,0.1865,0.1856,0.1936,0.1854,0.1846,0.1912,0.1912,0.1911,0.1755,0.1749,0.1743,0.1737,0.1722,0.1726,0.1731,0.1877,0,0,0.1746,0.1748,0,0,0,0,0,0,0,0,0.1865,0.1869,0.1866,0.186,0.1851,0.1829,0.1876,0.19,0.1756,0.179,0.1741,0.1735,0.1764,0.1765,0.1774,0.1876,0.1875,0.1746,0.1749,0.1751,0.1752,0,0,0,0,0,0,0,0.1864,0.1869,0.1927,0.1867,0.1857,0.182,0.1816,0.188,0.181,0.1786,0.1775,0.1774,0.1759,0.177,0.1772,0.1875,0.1746,0.175,0.1753,0.1755,0.2097,0.2103,0,0,0,0,0,0,0.1874,0.1869,0.1928,0.1926,0.1844,0.1827,0.1821,0.1842,0.1809,0.1798,0.1779,0.1766,0.1764,0.1767,0.1771,0.194,0.1751,0.1755,0.1758,0.2091,0.2098,0.2105,0,0,0,0,0,0,0.1873,0.1881,0.1929,0.1894,0.1898,0.1834,0.1859,0.1845,0.1855,0.1803,0.1791,0.1801,0.176,0.1764,0.1851,0.1937,0.1757,0.1762,0.2083,0.2093,0.2102,0.228,0,0,0,0,0,0,0.1871,0.1881,0.1934,0.1897,0.19,0.2008,0.1864,0.1849,0.1863,0.1846,0.1821,0.1812,0.1756,0.1845,0.1856,0.1941,0.1765,0.2075,0.2088,0.2099,0.2266,0.2294,0.2318,0,0,0,0,0,0.1868,0.1987,0.1938,0.1946,0.1965,0.2013,0.2015,0.1946,0.187,0.1924,0.1891,0.1812,0.1926,0.1855,0.1866,0.1954,0.207,0.2084,0.2098,0.2254,0.2289,0.2318,0,0,0,0,0,0,0.2038,0.198,0.1925,0.2034,0.203,0.1986,0.2052,0.1985,0.2004,0.1988,0.1904,0.1899,0.2,0.1985,0.1908,0.2093,0.1984,0.2001,0.21,0.2132,0.2157,0.216,0.1769,0,0,0,0,0,0.2088,0.213,0.2078,0.2179,0.2179,0.2117,0.2135,0.2082,0.2075,0.2073,0.2046,0.2044,0.2079,0.2104,0.2134,0.2263,0.2256,0.2328,0.2354,0.2376,0.2392,0.2461,0.2493,0.2151,0.2151,0.2151,0,0,0.2192,0.2166,0.2198,0.2213,0.2203,0.2251,0.2116,0.2172,0.2208,0.2082,0.2163,0.2143,0.2135,0.2244,0.2291,0.2235,0.2485,0.2394,0.2411,0.2416,0.2479,0.2511,0.254,0.2161,0.2159,0.2157,0,0,0.2406,0.239,0.2473,0.2465,0.2451,0.2408,0.2429,0.2396,0.2377,0.2456,0.2363,0.2405,0.2467,0.2465,0.2473,0.2687,0.2616,0.2699,0.2836,0.2904,0.2931,0.2954,0.3032,0.3061,0.2715,0.2715,0.2716,0,0.2539,0.2604,0.2525,0.2587,0.2597,0.2483,0.2568,0.2565,0.2563,0.2574,0.2511,0.2586,0.2573,0.2681,0.2733,0.2742,0.2765,0.2702,0.2933,0.2956,0.2976,0.305,0.3079,0.2726,0.2724,0.2723,0.2722,0,0.2768,0.2815,0.2884,0.2883,0.2901,0.2974,0.2908,0.2936,0.2882,0.2847,0.293,0.2909,0.2933,0.2954,0.2903,0.3056,0.3022,0.2947,0.2836,0.3021,0.3088,0.3116,0.274,0.2737,0.2734,0.2731,0,0,0.309,0.3042,0.3069,0.3067,0.3044,0.308,0.3149,0.317,0.3197,0.3199,0.3256,0.3311,0.3242,0.325,0.3197,0.3257,0.343,0.3175,0.3173,0.3224,0.3599,0.3657,0.3691,0.3382,0.3387,0.3391,0.36,0,0.3296,0.3409,0.334,0.3465,0.3509,0.3402,0.3462,0.3456,0.3425,0.3459,0.3426,0.3466,0.3371,0.3376,0.3429,0.3398,0.3504,0.3381,0.3437,0.344,0.3444,0.3726,0.3787,0.3986,0.3626,0.3631,0.3634,0,0.3553,0.3564,0.3693,0.3661,0.3677,0.3732,0.3746,0.378,0.3771,0.3744,0.3754,0.3687,0.3755,0.3644,0.3737,0.3655,0.3674,0.3662,0.3668,0.3672,0.355,0.374,0.4047,0.4078,0.3674,0.3671,0.3668,0,0.3777,0.3824,0.3908,0.3909,0.3874,0.3916,0.3903,0.3888,0.3905,0.3918,0.3929,0.3951,0.3964,0.3983,0.3924,0.3848,0.4027,0.391,0.4009,0.4011,0.4053,0.4051,0.437,0.4062,0.4062,0.4061,0.4061,0,0.4016,0.41,0.4008,0.406,0.4151,0.4071,0.4164,0.414,0.4128,0.4175,0.4083,0.413,0.4048,0.4087,0.4042,0.4127,0.4133,0.4116,0.4103,0.4125,0.4128,0.4137,0.4123,0.4069,0.4067,0.4066,0.4064,0,0.4282,0.4224,0.4308,0.4267,0.4258,0.4328,0.4294,0.4341,0.4303,0.4364,0.4374,0.4316,0.4357,0.4299,0.4335,0.4304,0.4423,0.4388,0.4425,0.4416,0.4519,0.4511,0.4856,0.4898,0.4563,0.4566,0.4569,0,0.444,0.4501,0.4466,0.449,0.4482,0.4522,0.4538,0.4463,0.4484,0.4479,0.4528,0.4561,0.4583,0.4654,0.4617,0.4644,0.4611,0.473,0.4614,0.4635,0.4615,0.4612,0.4619,0.4754,0.4758,0.4762,0.4764,0,0.4726,0.4693,0.472,0.4737,0.4759,0.4769,0.4773,0.4798,0.4719,0.4748,0.4788,0.4805,0.484,0.4875,0.4893,0.4882,0.4812,0.4801,0.4825,0.4849,0.4869,0.4861,0.4492,0.4794,0.4791,0.4788,0.4787,0.4786,0.4943,0.4993,0.4976,0.5009,0.5004,0.5009,0.5052,0.5019,0.505,0.5072,0.5026,0.5078,0.5068,0.5083,0.5081,0.5121,0.507,0.5105,0.5114,0.5125,0.5141,0.4861,0.5124,0.5123,0.5122,0.5122,0.5121,0,0.5226,0.5209,0.524,0.5248,0.5274,0.5202,0.5203,0.5231,0.5277,0.5272,0.5296,0.5342,0.5376,0.5341,0.5368,0.5407,0.5376,0.5417,0.5415,0.5414,0.5185,0.5162,0.5442,0.5442,0.5442,0.5442,0.5442,0.5442,0.5376,0.5457,0.5424,0.5502,0.5485,0.5534,0.5541,0.5546,0.5542,0.5598,0.5624,0.56,0.5584,0.5609,0.5637,0.5626,0.5642,0.5695,0.5673,0.5461,0.5429,0.54,0.5377,0.5698,0.5699,0.5898,0.59,0.5902]},{"header":{"parameterUnit":"m.s-1","parameterCategory":1,"la1":30.2991,"la2":30.254,"lo1":-89.0895,"lo2":-89.0444,"dy":0.0017,"dx":0.0017,"nx":28,"ny":28,"refTime":"2025-07-17T09:00:00:Z","depth":0,"parameterNumber":3,"parameterNumberName":"V-component_of_WINDS"},"data":[0,0,0,0,0,0,0,0,0,0,0,0,0,0,0,0,0,0,0,0,0,0,0,0,0,0,0,0,0,0,0,0,0,0,0,0,0,0,0,0,0,0,0,0,0,0,0,0,0,0,0,0,0,0,0,0,0,0,5.6489,5.6494,0,5.6935,5.694,5.6945,5.7007,5.7003,5.6998,5.6995,5.7449,5.7465,5.7481,0,0,0,0,0,0,0,0,0,0,0,0,0,5.5688,5.5702,5.6488,5.6494,5.65,5.6934,5.694,5.6946,5.7007,5.7002,5.6997,5.6993,5.7444,5.7463,5.7482,0,0,0,0,0,0,0,0,0,0,0,0,0,5.6075,5.5707,5.6488,5.6583,5.6596,5.6932,5.694,5.6948,5.7009,5.7002,5.6996,5.699,5.7438,5.7461,5.7485,5.7757,0,0,5.7558,5.7568,0,0,0,0,0,0,0,0,5.6053,5.6104,5.6563,5.6577,5.6592,5.6909,5.6824,5.7219,5.701,5.6852,5.6994,5.6987,5.7274,5.7311,5.7409,5.7778,5.7798,5.756,5.7575,5.7585,5.7592,0,0,0,0,0,0,0,5.6026,5.6085,5.6665,5.657,5.6587,5.6602,5.665,5.6899,5.7092,5.6865,5.6871,5.6923,5.7281,5.7385,5.742,5.7805,5.7559,5.7581,5.7595,5.7605,5.8418,5.8425,0,0,0,0,0,0,5.5982,5.6062,5.6651,5.6678,5.6302,5.6622,5.6676,5.6813,5.709,5.7126,5.6927,5.6924,5.7347,5.7392,5.7436,5.7772,5.7585,5.7607,5.7621,5.8411,5.8419,5.8427,0,0,0,0,0,0,5.5964,5.6034,5.6633,5.6372,5.645,5.6642,5.6796,5.6825,5.693,5.7137,5.7172,5.6999,5.7344,5.7402,5.7676,5.7788,5.7618,5.764,5.8402,5.8413,5.8423,5.8446,0,0,0,0,0,0,5.5941,5.6027,5.6133,5.6374,5.6463,5.6867,5.6803,5.6839,5.6971,5.6971,5.7213,5.7247,5.7344,5.764,5.77,5.7818,5.7658,5.8393,5.8407,5.842,5.8436,5.8456,5.8473,0,0,0,0,0,5.5912,5.6122,5.6139,5.6209,5.66,5.6873,5.6924,5.7031,5.698,5.7088,5.722,5.724,5.7766,5.7668,5.7736,5.7863,5.8386,5.8403,5.8419,5.8427,5.8452,5.8473,0,0,0,0,0,0,5.589,5.6155,5.6177,5.6471,5.6649,5.6883,5.7022,5.7054,5.725,5.7242,5.7366,5.742,5.7688,5.7803,5.7688,5.814,5.8072,5.8102,5.8055,5.808,5.8098,5.8064,5.7678,0,0,0,0,0,5.5918,5.6119,5.634,5.6578,5.6666,5.6829,5.6952,5.7019,5.7208,5.7284,5.7437,5.7619,5.7826,5.7959,5.8161,5.8453,5.8505,5.8573,5.8592,5.8606,5.8631,5.8792,5.8824,5.8481,5.8481,5.848,0,0,5.5981,5.6151,5.627,5.6578,5.6724,5.6927,5.6892,5.7109,5.7261,5.7317,5.7585,5.7703,5.7915,5.8198,5.8331,5.8302,5.8737,5.8627,5.8637,5.8654,5.8812,5.8844,5.8873,5.8492,5.849,5.8488,0,0,5.6198,5.6347,5.6561,5.6708,5.6929,5.7036,5.7087,5.7317,5.7398,5.7669,5.7714,5.7896,5.825,5.8398,5.852,5.8791,5.8816,5.8853,5.8951,5.9106,5.9133,5.9158,5.9253,5.9286,5.8877,5.8878,5.8878,0,5.6247,5.6557,5.6667,5.6883,5.7016,5.7076,5.7292,5.7429,5.7705,5.7795,5.7759,5.8203,5.835,5.8668,5.8734,5.8831,5.8892,5.8826,5.912,5.9146,5.9171,5.9263,5.9299,5.8881,5.888,5.888,5.888,0,5.6605,5.6819,5.6965,5.7229,5.7379,5.7594,5.7735,5.7874,5.7927,5.8037,5.8311,5.8489,5.8727,5.8807,5.8862,5.9133,5.9108,5.9095,5.9029,5.9205,5.9293,5.933,5.8885,5.8884,5.8883,5.8882,0,0,5.6821,5.7143,5.7195,5.7315,5.7562,5.7729,5.7946,5.8179,5.8294,5.8482,5.8665,5.8962,5.8951,5.9089,5.9161,5.9297,5.9499,5.9268,5.9274,5.9303,5.9807,5.9814,5.9854,5.9516,5.9524,5.9529,5.9788,0,5.7066,5.7455,5.756,5.7889,5.8086,5.8145,5.8334,5.8505,5.8613,5.8796,5.8914,5.9122,5.9093,5.9176,5.9314,5.9445,5.9601,5.9428,5.9687,5.9695,5.9632,5.99,5.991,6.0146,5.9824,5.983,5.9834,0,5.7405,5.7599,5.7947,5.8168,5.8255,5.8422,5.8643,5.8817,5.9012,5.9081,5.9234,5.9293,5.9519,5.9441,5.9754,5.9634,5.9746,5.9826,5.9838,5.9866,5.9775,5.9934,6.0224,6.0259,5.989,5.9886,5.9882,0,5.7525,5.7874,5.8127,5.8228,5.8492,5.8608,5.8724,5.8913,5.9045,5.9238,5.9325,5.9541,5.966,5.9825,5.994,5.9873,6.0243,6.0175,6.0305,6.0302,6.038,6.0374,6.0691,6.0454,6.0453,6.0452,6.0452,0,5.7788,5.7998,5.8185,5.834,5.8577,5.8695,5.8926,5.9043,5.9211,5.9389,5.9453,5.9619,5.9761,5.9946,6.0037,6.0281,6.0335,6.0396,6.0417,6.039,6.0382,6.0465,6.0451,6.0462,6.046,6.0458,6.0456,0,5.7963,5.8096,5.8376,5.8603,5.8664,5.8829,5.9023,5.9175,5.9284,5.9509,5.9569,5.974,5.9961,6.0092,6.0371,6.0432,6.0702,6.0717,6.0636,6.0646,6.0768,6.0754,6.1149,6.1206,6.0931,6.0934,6.0936,0,5.8121,5.8284,5.8528,5.8652,5.8769,5.8969,5.9104,5.9226,5.9364,5.9597,5.9721,5.9946,6.0132,6.0481,6.063,6.0843,6.0863,6.0987,6.0896,6.0862,6.0864,6.0852,6.0869,6.1002,6.1004,6.1006,6.1008,0,5.8387,5.8445,5.8638,5.8854,5.9014,5.919,5.9365,5.9463,5.9613,5.9765,5.9991,6.0136,6.042,6.0641,6.0867,6.0985,6.1022,6.1035,6.1077,6.105,6.0996,6.1026,6.0677,6.1026,6.1024,6.1023,6.1022,6.1021,5.8559,5.8706,5.89,5.9112,5.9256,5.9418,5.9572,5.97,5.9891,6.0132,6.0192,6.0429,6.0619,6.0925,6.1048,6.1234,6.1214,6.1274,6.129,6.1302,6.1305,6.0966,6.1276,6.1276,6.1275,6.1275,6.1275,0,5.8827,5.8954,5.9149,5.9391,5.9558,5.9578,5.9772,5.991,6.0118,6.0292,6.0473,6.0732,6.0947,6.1112,6.1332,6.1449,6.1471,6.1503,6.1495,6.1521,6.1311,6.1253,6.1481,6.1481,6.1481,6.1481,6.1481,6.1481,5.8986,5.9236,5.9316,5.9637,5.9763,5.9996,6.0105,6.0254,6.0393,6.0679,6.0858,6.0964,6.1134,6.1367,6.1564,6.1607,6.1684,6.1713,6.1758,6.1559,6.1536,6.1515,6.1461,6.1729,6.1729,6.1953,6.1955,6.1957]}]]